Cloud_Cover
0 0 0 0 0 0 0 0 0 0 0 0 0 0 0 0 0 0 0 0 0 0 3 2 0 0 0 0 0 0 0 0 3 5 13 33 8 8 47 91 26 30 27 37 96 100 94 80 88
0 0 0 0 0 0 0 0 0 0 0 0 0 0 0 0 0 0 0 0 0 0 1 21 0 2 0 2 0 0 0 1 16 4 5 2 5 5 93 100 97 78 65 69 89 96 94 100 72
0 0 0 4 0 0 0 0 0 0 0 0 0 0 0 0 0 0 0 0 0 0 1 7 0 0 0 1 0 0 0 0 4 4 5 4 2 4 5 57 64 90 50 58 100 96 35 90 100
1 0 1 3 0 0 0 0 0 0 0 0 0 0 0 0 0 0 0 0 0 1 1 4 0 0 0 0 0 0 0 0 0 0 13 3 18 15 31 5 52 34 51 42 10 46 96 100 100
0 0 3 5 0 0 0 0 0 0 0 0 0 0 0 0 0 0 0 0 0 6 6 13 0 4 0 0 0 0 0 0 0 0 0 0 0 0 4 5 5 5 46 70 5 5 100 85 61
5 0 5 5 1 0 0 0 0 0 0 0 0 0 0 0 0 0 0 0 0 1 4 12 29 2 0 0 0 1 0 0 0 0 0 0 0 0 0 0 0 0 100 100 12 5 5 5 18
4 0 2 5 0 0 0 0 0 0 0 0 0 0 0 0 0 0 0 0 0 0 1 25 43 32 16 84 100 98 0 0 0 0 0 0 0 0 0 0 0 0 39 83 15 2 2 1 3
5 0 4 4 0 0 0 0 0 0 0 0 0 0 0 0 0 0 0 0 0 0 0 26 45 91 44 27 98 47 0 0 0 0 0 0 0 0 0 0 0 0 0 14 7 0 0 0 0
2 0 0 0 0 0 0 0 0 0 0 0 0 0 0 0 0 0 0 0 0 0 0 12 39 89 100 100 74 68 12 7 1 10 32 32 57 16 0 0 0 0 0 0 1 0 0 0 0
0 0 0 0 0 0 0 0 0 0 0 0 0 0 0 0 0 0 0 0 0 0 0 4 35 58 100 100 100 96 90 100 100 100 64 25 5 98 66 13 0 0 0 0 0 0 0 0 0
0 0 0 0 0 0 0 0 0 0 0 0 0 0 0 0 0 0 0 0 0 0 0 0 4 47 98 100 100 100 95 29 100 100 100 88 30 100 100 100 96 29 0 0 0 0 0 0 0
0 0 0 0 0 0 0 0 0 0 0 0 0 0 0 0 1 0 0 0 0 0 0 0 0 12 56 99 100 100 100 50 58 100 100 100 87 100 100 100 100 100 76 9 0 0 0 0 0
5 0 0 0 0 1 0 0 0 0 0 0 0 0 0 0 2 0 0 0 0 0 0 0 0 0 8 44 76 100 100 100 91 78 62 62 39 99 100 100 100 100 100 97 7 0 0 0 0
100 70 37 56 17 5 2 4 4 5 1 0 0 0 0 0 0 0 0 0 0 0 0 0 0 0 0 11 35 82 100 100 100 100 94 100 52 31 18 100 100 100 100 59 21 0 0 0 0
53 89 100 100 28 5 76 97 5 5 0 0 0 0 0 0 0 0 0 0 0 0 0 0 0 0 0 0 14 38 100 100 100 100 100 96 47 85 96 100 100 100 100 90 79 18 0 0 0
5 74 35 5 5 37 39 100 95 40 3 0 0 0 0 0 1 0 0 0 0 0 0 0 0 0 0 0 9 20 35 82 95 96 100 100 100 100 100 100 100 100 100 100 100 100 95 3 0
5 5 76 53 5 5 26 100 100 6 5 38 29 3 0 2 4 5 1 0 0 0 1 0 0 0 0 0 7 22 91 96 100 100 100 100 100 100 100 100 100 100 100 100 100 100 100 89 0
5 5 5 8 5 5 17 24 45 5 9 5 56 75 71 41 2 1 5 5 5 5 5 21 17 3 6 12 1 14 65 99 100 100 100 100 100 100 100 100 100 100 100 100 100 100 100 100 81
5 5 5 5 5 58 42 96 64 36 25 92 15 41 48 100 100 100 100 100 79 29 5 5 76 100 100 100 100 87 5 16 67 100 100 100 100 100 100 100 100 100 100 100 100 100 100 100 100
5 5 11 22 5 9 6 5 5 5 39 76 44 69 85 42 94 96 100 100 100 100 100 100 87 45 27 5 68 100 100 100 68 72 100 100 100 100 100 100 100 100 100 100 100 100 100 100 100
5 5 5 5 0 0 2 4 5 5 5 5 5 4 5 32 5 8 71 100 100 100 100 100 100 100 100 100 76 43 37 100 100 100 100 100 99 100 100 100 100 100 100 100 100 100 100 100 100
5 0 5 5 0 0 3 0 2 0 0 0 0 0 0 0 4 5 5 5 8 72 100 100 100 100 100 100 100 100 100 100 100 100 100 100 100 100 100 100 100 100 100 100 100 100 100 100 100
31 6 7 13 5 5 97 10 53 40 79 8 6 6 6 0 0 0 2 5 5 24 29 58 99 100 100 100 100 96 100 71 96 100 100 100 100 100 51 100 100 100 100 100 97 59 95 100 100
54 59 5 5 5 6 91 46 66 99 100 100 89 34 23 62 70 60 42 38 21 36 62 18 100 100 89 72 47 97 59 65 100 76 8 69 100 100 100 76 39 99 46 100 100 100 95 70 93
40 30 6 5 15 5 20 39 99 35 10 23 26 16 31 76 66 40 97 76 27 88 21 6 31 68 72 90 8 61 12 6 19 45 36 74 76 99 98 90 99 86 70 36 76 75 100 100 100
61 99 84 48 15 99 99 91 96 100 100 100 98 78 32 8 5 11 37 17 5 27 63 45 33 18 81 80 67 98 97 99 34 86 82 59 79 100 100 100 94 88 80 100 100 98 100 100 100
93 99 99 81 100 88 99 100 99 78 39 19 52 12 5 5 5 5 5 5 5 6 5 14 12 31 70 24 14 10 5 7 6 56 6 61 26 94 99 99 100 100 100 100 100 96 100 100 100
83 99 100 100 34 69 32 59 100 100 98 35 5 5 5 5 5 5 5 17 5 5 19 91 86 5 30 2 3 1 0 2 2 0 0 2 3 12 70 17 77 100 100 90 91 100 94 100 100
100 45 79 100 100 100 94 100 100 100 26 6 28 69 6 23 57 52 96 70 61 75 76 50 4 0 2 0 4 1 0 0 0 0 0 0 0 2 23 84 89 5 11 75 84 5 76 11 97
100 100 100 91 77 57 87 86 57 7 5 7 92 100 100 100 68 100 100 100 100 100 100 5 0 0 5 5 5 0 0 0 0 0 0 0 0 0 0 0 0 0 1 91 94 0 0 0 5